Location: Assche-ter-Heiden
(50.9174°N, 4.1574°E)
Time: 13:10:56
(UTC+00:00)

Orbus 7S? - Pass Details

Date: 20 January 2020
Orbit: 324 x 6445 km, 57.0° (Epoch: 20 February)

Event Time Altitude Azimuth Distance (km) Brightness Sun altitude
Exits shadow 02:35:12 -3° 75° (ENE) 2,893 7.8 -46.1°
Enters shadow 04:47:26 -47° 296° (WNW) 11,943 9.9 -26.0°
Maximum altitude 05:15:14 84° 214° (SW) 511 3.0 -21.6°
